Sabadell Airport

Jump to: basic info | weather | runways | comments

Related pages: nearby airports | nearby navaids | notams | map

Basic information (top)

Codes: QSA LELL
Location: lon 41.520901, lat 2.105080, elev 485 ft / 148 m msl
Status: small_airport

Weather (top)

Current conditions (rec'd 2014/10/25 16:30Z):

LELL 251630Z 12006KT 080V150 CAVOK 22/15 Q1019

Airport forecast (rec'd 2014/10/26 03:32Z):

TAF LELL 260200Z 2603/2703 25005KT CAVOK TX25/2614Z TN11/2606Z 
      TEMPO 2612/2615 14007KT

Runways (top)

13/31: 2,953 ft (900 m) — surface unknown — not lighted

Latest comments (top)

GA Pilots useful info: Last visit: summer 2014 Fuel: Avgas ... [read]

Great service, easy in & out: Here our expenses for 3 days in ... [read]

great service, great people: So going on a helicopter through spain ... [read]

More... (top)

See also NOTAMs and nearby airports and navaids, or visit the Sabadell Airport page at the main OurAirports website..